カタログに戻る

YIXIAN-A (R)

運用中科学SSO
NORAD 66999·PAYLOAD·🇨🇳 China
この衛星名は、まだ公式ソースで確認されていません。

打ち上げ Dec 10, 2025 から Jiuquan Satellite Launch Center

Loading…

次のパス (今後24時間)

TLE

最新Source: Space-Track

元期: Sep 14, 2026, 03:47 UTC

1 66999U 25292G   26257.15785474  .00004001  00000-0  26832-3 0  9991
2 66999  97.6294 332.3718 0016197  71.5784 288.7202 15.07319887 41857

AllMySatでYIXIAN-A (R)をリアルタイム追跡

Download on the App Store